Location: Pinawa
(50.1500°N, 95.8830°W)
Time: 13:21:53
(UTC-05:00)

ISS - All Passes

Search period start: 21 May 2018 00:00
Search period end: 31 May 2018 00:00
Orbit: 402 x 407 km, 51.6° (Epoch: 22 May)

Date Brightness Start Highest point End Pass type
(mag) Time Alt. Az. Time Alt. Az. Time Alt. Az.
21 May - 01:30:17 10° W 01:33:32 65° N 01:36:48 10° E visible
21 May - 03:06:50 10° WNW 03:10:08 79° SSW 03:13:24 10° ESE visible
21 May - 04:43:44 10° W 04:46:16 21° SW 04:48:47 10° SSE visible
21 May - 21:28:14 10° SSE 21:29:00 11° SE 21:29:46 10° ESE daylight
21 May - 23:01:42 10° SW 23:04:51 47° SSE 23:08:01 10° ENE visible
22 May - 00:38:02 10° W 00:41:18 69° N 00:44:35 10° ENE visible
22 May - 02:14:38 10° WNW 02:17:56 81° NNE 02:21:12 10° E visible
22 May - 03:51:16 10° W 03:54:14 32° SSW 03:57:12 10° SSE visible
22 May - 22:09:49 10° SSW 22:12:46 31° SSE 22:15:43 10° E visible
22 May - 23:45:47 10° WSW 23:49:04 82° NNW 23:52:21 10° ENE visible
23 May - 01:22:26 10° WNW 01:25:42 69° N 01:28:57 10° E visible
23 May - 02:58:58 10° WNW 03:02:09 48° SSW 03:05:19 10° SE visible
23 May - 04:37:06 10° WSW 04:38:01 11° SW 04:38:56 10° SSW visible
23 May - 21:18:14 10° SSW 21:20:43 20° SE 21:23:13 10° E daylight
23 May - 22:53:35 10° WSW 22:56:51 78° SSE 23:00:08 10° ENE visible
24 May - 00:30:10 10° W 00:33:26 64° N 00:36:42 10° E visible
24 May - 02:06:44 10° WNW 02:09:59 71° SSW 02:13:15 10° ESE visible
24 May - 03:43:47 10° W 03:46:03 18° SW 03:48:20 10° S visible
24 May - 20:27:11 10° SSE 20:28:44 13° SE 20:30:17 10° ESE daylight
24 May - 22:01:28 10° SW 22:04:40 55° SSE 22:07:53 10° ENE visible
24 May - 23:37:54 10° W 23:41:09 67° N 23:44:25 10° E visible
25 May - 01:14:29 10° WNW 01:17:46 87° NNE 01:21:03 10° ESE visible
25 May - 02:51:11 10° W 02:54:01 27° SW 02:56:51 10° SSE visible
25 May - 21:09:29 10° SW 21:12:31 36° SSE 21:15:34 10° E daylight
25 May - 22:45:36 10° W 22:48:53 76° N 22:52:09 10° ENE visible
26 May - 00:22:14 10° WNW 00:25:31 72° N 00:28:46 10° E visible
26 May - 01:58:48 10° W 02:01:55 42° SSW 02:05:01 10° SE visible
26 May - 20:17:44 10° SSW 20:20:25 24° SE 20:23:07 10° E daylight
26 May - 21:53:19 10° WSW 21:56:37 86° SSE 21:59:53 10° ENE visible
26 May - 23:29:57 10° W 23:33:13 65° N 23:36:29 10° E visible
27 May - 01:06:30 10° WNW 01:09:44 62° SSW 01:12:58 10° ESE visible
27 May - 02:43:46 10° WSW 02:45:44 15° SW 02:47:41 10° S visible
27 May - 19:26:23 10° S 19:28:22 15° SE 19:30:22 10° ESE daylight
27 May - 21:01:07 10° WSW 21:04:22 63° SSE 21:07:37 10° ENE daylight
27 May - 22:37:38 10° W 22:40:53 65° N 22:44:09 10° E visible
28 May - 00:14:13 10° WNW 00:17:30 86° SSW 00:20:46 10° ESE visible
28 May - 01:51:00 10° W 01:53:41 23° SW 01:56:21 10° SSE visible
28 May - 20:09:03 10° SW 20:12:10 42° SSE 20:15:18 10° E daylight
28 May - 21:45:18 10° W 21:48:34 72° N 21:51:51 10° ENE daylight
28 May - 23:21:55 10° WNW 23:25:12 77° N 23:28:29 10° E visible
29 May - 00:58:31 10° W 01:01:34 36° SSW 01:04:35 10° SE visible
29 May - 19:17:10 10° SSW 19:20:01 28° SE 19:22:52 10° E daylight
29 May - 20:52:59 10° WSW 20:56:15 87° NNW 20:59:33 10° ENE daylight
29 May - 22:29:37 10° WNW 22:32:52 67° N 22:36:08 10° E visible
30 May - 00:06:08 10° WNW 00:09:21 54° SSW 00:12:33 10° SE visible
30 May - 01:43:46 10° WSW 01:45:16 13° SW 01:46:46 10° SSW visible
30 May - 18:25:36 10° S 18:27:54 18° SE 18:30:13 10° E daylight
30 May - 20:00:42 10° WSW 20:03:58 71° SSE 20:07:14 10° ENE daylight
30 May - 21:37:15 10° W 21:40:32 65° N 21:43:46 10° E daylight
30 May - 23:13:49 10° WNW 23:17:06 78° SSW 23:20:22 10° ESE visible
